Date,TemperatureHighF,TemperatureAvgF,TemperatureLowF,DewpointHighF,DewpointAvgF,DewpointLowF,HumidityHigh,HumidityAvg,HumidityLow,PressureMaxIn,PressureMinIn,WindSpeedMaxMPH,WindSpeedAvgMPH,GustSpeedMaxMPH,PrecipitationSumIn
2013-1-1,48,41,30,34,27,20,96,61,36,30.32,30.24,18,8,19,0.00
2013-1-2,52,44,34,29,24,19,76,47,36,30.28,30.17,18,6,20,0.00
2013-1-3,52,42,33,36,29,24,89,61,44,30.30,30.18,10,3,10,0.00
2013-1-4,53,43,35,36,31,28,86,63,43,30.32,30.22,11,3,11,0.00
2013-1-5,44,40,32,42,37,29,99,91,77,30.28,30.10,18,2,18,0.49
2013-1-6,46,41,37,42,39,36,99,93,83,30.21,30.10,18,4,20,0.04
2013-1-7,55,47,36,48,42,34,98,84,72,30.28,30.19,11,2,12,0.00
2013-1-8,61,50,41,50,44,40,99,83,52,30.25,30.14,14,3,14,0.00
2013-1-9,45,41,34,45,40,31,100,97,87,30.17,29.98,23,3,23,0.06
2013-1-10,45,36,29,34,30,24,96,77,55,30.21,30.07,13,2,13,0.00
2013-1-11,44,36,27,36,30,23,93,78,62,30.27,30.16,13,2,13,0.00
2013-1-12,43,36,27,30,24,17,91,64,46,30.27,30.17,17,4,17,0.00
2013-1-13,44,37,26,18,13,9,65,38,26,30.29,30.21,24,6,30,0.00
2013-1-14,49,41,34,23,14,8,55,34,26,30.42,30.27,32,8,32,0.00
2013-1-15,52,40,31,34,26,17,89,57,35,30.51,30.42,16,3,19,0.00
2013-1-16,58,51,40,38,27,23,72,40,28,30.45,30.27,26,7,26,0.00
2013-1-17,62,56,50,29,21,13,37,26,20,30.27,30.18,27,10,27,0.00
2013-1-18,61,54,49,30,22,17,34,29,24,30.25,30.16,20,8,20,0.00
2013-1-19,60,53,43,30,21,15,51,30,24,30.28,30.18,22,7,22,0.00
2013-1-20,61,51,37,30,23,15,64,36,22,30.25,30.16,16,5,16,0.00
2013-1-21,62,53,37,34,25,18,65,34,23,30.21,30.13,18,6,19,0.00
2013-1-22,59,51,44,39,29,21,71,45,30,30.14,30.03,13,4,13,0.00
2013-1-23,54,47,44,48,41,33,99,81,48,30.12,29.99,11,2,12,0.51
2013-1-24,55,50,47,51,48,47,99,93,88,30.21,30.09,14,5,14,0.02
2013-1-25,58,52,47,52,49,46,97,91,81,30.21,30.06,9,2,10,0.00
2013-1-26,50,45,38,49,41,34,99,85,64,30.06,29.96,17,3,17,0.01
2013-1-27,49,39,30,34,31,27,97,74,51,30.20,30.04,12,2,12,0.00
2013-1-28,51,41,31,40,34,29,94,77,61,30.31,30.17,11,2,11,0.00
2013-1-29,59,47,33,41,35,31,94,66,41,30.39,30.30,19,4,19,0.00
2013-1-30,65,54,41,46,39,31,92,58,28,30.35,30.26,22,6,22,0.00
2013-1-31,62,52,41,46,38,32,95,62,43,30.30,30.20,16,4,16,0.00
2013-2-1,61,52,41,42,38,33,85,59,43,30.25,30.16,15,5,15,0.00
2013-2-2,60,50,39,48,41,35,98,72,53,30.31,30.23,10,2,10,0.00
2013-2-3,58,46,38,48,42,37,99,87,56,30.26,30.17,11,2,11,0.01
2013-2-4,58,47,37,49,42,35,97,84,51,30.19,30.08,8,2,8,0.00
2013-2-5,54,42,33,46,40,33,100,93,74,30.18,30.05,17,3,18,0.01
2013-2-6,53,44,34,42,37,31,96,80,53,30.21,30.13,14,3,14,0.00
2013-2-7,47,41,36,41,37,33,99,87,61,30.17,29.99,15,4,15,0.21
2013-2-8,51,42,31,36,29,21,98,65,32,30.03,29.96,19,6,20,0.00
2013-2-9,54,44,33,31,23,18,79,46,26,30.11,30.01,23,6,25,0.00
2013-2-10,58,49,33,34,27,22,77,43,28,30.13,30.04,21,7,21,0.00
2013-2-11,60,49,36,34,27,22,81,44,26,30.25,30.09,24,6,24,0.00
2013-2-12,57,45,34,40,35,30,90,69,46,30.39,30.24,14,3,14,0.00
2013-2-13,62,51,38,46,38,32,91,64,38,30.35,30.22,15,4,15,0.00
2013-2-14,66,60,53,39,34,30,55,39,30,30.25,30.18,24,10,26,0.00
2013-2-15,68,56,42,43,34,27,84,46,27,30.28,30.21,24,6,24,0.00
2013-2-16,66,56,42,46,39,33,84,56,35,30.27,30.03,10,3,10,0.00
2013-2-17,61,51,39,44,36,25,88,60,25,30.04,29.97,17,4,18,0.00
2013-2-18,47,40,35,42,38,32,99,90,75,30.01,29.92,16,4,16,0.00
2013-2-19,43,37,33,38,33,28,99,87,65,29.95,29.75,19,5,19,0.18
2013-2-20,53,43,32,36,31,27,92,63,37,30.07,29.86,23,5,23,0.00
2013-2-21,56,44,30,33,29,22,95,60,27,30.21,30.06,27,4,27,0.00
2013-2-22,59,50,42,40,35,30,81,57,40,30.27,30.17,17,5,17,0.00
2013-2-23,54,45,35,40,28,16,94,58,26,30.27,30.14,20,5,20,0.00
2013-2-24,60,48,40,32,23,16,68,38,20,30.28,30.19,25,6,25,0.00
2013-2-25,61,46,34,42,34,29,91,68,32,30.26,30.20,13,2,13,0.00
2013-2-26,64,50,38,31,22,16,75,35,17,30.25,30.19,24,7,26,0.00
2013-2-27,63,51,38,40,32,21,70,49,32,30.38,30.24,14,2,14,0.00
2013-2-28,66,55,45,52,46,40,92,74,52,30.45,30.37,16,2,16,0.00
2013-3-1,69,56,43,50,46,41,96,72,42,30.44,30.27,10,3,11,0.00
2013-3-2,66,56,47,52,48,44,95,76,58,30.27,30.07,9,2,9,0.00
2013-3-3,61,51,42,49,46,40,98,83,57,30.08,30.01,13,3,14,0.00
2013-3-4,55,45,38,49,42,37,99,91,70,30.14,30.05,11,3,11,0.01
2013-3-5,48,42,34,43,39,33,99,90,77,30.06,29.78,25,5,32,0.34
2013-3-6,48,42,35,43,38,33,99,87,63,30.07,29.78,26,6,26,0.30
2013-3-7,48,40,31,38,35,30,98,81,66,30.02,29.91,15,4,15,0.01
2013-3-8,57,47,37,40,35,28,92,64,44,30.04,29.87,15,4,15,0.00
2013-3-9,65,52,40,40,34,25,90,52,23,30.34,30.04,22,6,23,0.00
2013-3-10,68,57,44,44,32,23,74,40,25,30.35,30.25,18,5,17,0.00
2013-3-11,68,57,42,46,39,32,82,53,32,30.27,30.12,14,4,15,0.00
2013-3-12,72,59,45,52,46,40,89,65,43,30.17,30.09,10,3,12,0.00
2013-3-13,75,61,50,54,49,45,87,66,36,30.17,30.08,11,3,12,0.00
2013-3-14,68,57,48,55,46,38,95,70,35,30.17,30.08,12,2,12,0.00
2013-3-15,70,59,46,50,43,37,80,56,38,30.13,30.03,15,3,17,0.00
2013-3-16,68,58,48,49,40,36,81,54,32,30.10,30.02,22,3,22,0.00
2013-3-17,66,52,38,42,37,31,84,58,33,30.15,30.04,10,2,10,0.00
2013-3-18,62,53,42,47,42,35,87,65,42,30.12,30.03,11,3,11,0.00
2013-3-19,59,51,43,48,41,30,95,69,41,30.12,30.05,13,2,14,0.11
2013-3-20,51,47,44,51,47,43,100,99,93,30.14,30.05,14,4,14,0.43
2013-3-21,61,49,40,46,40,32,100,72,45,30.14,30.04,18,5,20,0.01
2013-3-22,62,52,45,33,22,12,51,33,16,30.14,30.06,25,10,25,0.00
2013-3-23,65,53,45,40,29,19,61,39,27,30.16,30.05,25,6,25,0.00
2013-3-24,66,55,42,49,41,33,80,60,38,30.09,29.97,11,3,11,0.00
2013-3-25,57,48,39,49,43,37,96,81,60,30.01,29.93,13,3,13,0.00
2013-3-26,63,50,39,50,43,38,98,79,56,30.01,29.95,16,3,16,0.00
2013-3-27,54,50,45,50,46,42,97,89,81,30.02,29.94,11,4,12,0.00
2013-3-28,59,51,45,53,48,44,99,91,78,30.12,30.02,8,2,8,0.04
2013-3-29,71,59,52,54,49,46,87,71,44,30.12,30.03,17,4,17,0.00
2013-3-30,61,55,50,55,50,47,96,85,76,30.06,29.98,12,3,12,0.06
2013-3-31,58,51,48,53,50,47,99,95,78,30.09,29.99,14,2,14,0.30
2013-4-1,58,51,46,54,49,45,100,94,80,30.17,30.06,12,2,12,0.10
2013-4-2,64,54,44,56,50,43,99,85,66,30.19,30.09,13,3,13,0.01
2013-4-3,69,57,45,58,51,45,98,81,52,30.13,29.99,11,3,11,0.00
2013-4-4,54,50,46,54,50,46,100,99,87,30.13,29.96,12,4,15,0.74
2013-4-5,56,50,48,52,49,47,100,95,81,30.19,30.12,13,4,14,0.09
2013-4-6,62,52,47,53,48,45,100,89,66,30.20,30.13,15,4,15,0.00
2013-4-7,58,49,44,54,47,42,100,93,79,30.17,29.80,20,5,23,0.13
2013-4-8,62,50,39,44,32,15,98,55,17,30.07,29.77,31,7,31,0.00
2013-4-9,69,59,49,37,30,24,45,35,19,30.14,30.07,22,8,23,0.00
2013-4-10,79,68,58,53,45,34,69,44,32,30.19,30.00,22,7,22,0.00
2013-4-11,73,60,50,48,42,31,80,54,25,30.01,29.83,20,4,21,0.00
2013-4-12,72,59,46,52,43,33,82,56,33,29.91,29.82,15,3,15,0.00
2013-4-13,69,57,46,50,44,37,84,63,45,29.88,29.80,17,3,17,0.00
2013-4-14,68,53,44,46,37,26,89,57,33,29.91,29.82,25,5,25,0.00
2013-4-15,55,46,37,42,36,28,98,71,45,29.96,29.83,22,5,22,0.00
2013-4-16,60,51,42,28,25,18,55,38,22,30.20,29.96,26,10,27,0.00
2013-4-17,63,54,46,29,24,17,49,33,17,30.30,30.20,29,10,31,0.00
2013-4-18,72,61,50,42,33,23,66,36,26,30.28,30.19,23,5,23,0.00
2013-4-19,76,61,47,52,45,39,85,58,37,30.23,30.07,17,3,17,0.00
2013-4-20,79,65,53,47,39,30,69,40,20,30.10,29.97,22,7,23,0.00
2013-4-21,82,69,52,50,41,32,72,37,19,30.04,29.92,17,5,17,0.00
2013-4-22,82,72,61,46,34,20,56,28,11,29.96,29.86,33,8,33,0.00
2013-4-23,80,66,57,45,27,15,56,25,12,29.92,29.83,39,10,41,0.00
2013-4-24,77,62,44,52,37,24,95,46,17,29.89,29.80,26,8,26,0.00
2013-4-25,64,51,42,51,46,42,100,85,61,30.12,29.89,18,6,18,0.00
2013-4-26,74,58,43,56,50,42,97,75,44,30.22,30.11,14,3,14,0.00
2013-4-27,80,65,47,58,51,41,94,64,26,30.20,30.04,13,3,13,0.00
2013-4-28,84,69,54,57,50,41,78,52,32,30.04,29.88,16,3,16,0.00
2013-4-29,85,74,60,54,47,39,75,39,28,29.89,29.73,20,6,20,0.00
2013-4-30,78,69,59,49,26,1,58,27,6,29.87,29.73,32,9,32,0.00
2013-5-1,79,72,58,25,18,12,19,13,10,30.09,29.91,30,12,33,0.00
2013-5-2,86,74,61,38,23,10,35,15,11,30.15,30.06,26,8,26,0.00
2013-5-3,88,67,52,46,37,29,53,35,14,30.06,29.78,13,-2,13,0.00
2013-5-4,83,71,50,50,33,22,96,31,11,29.78,29.52,31,8,31,0.00
2013-5-5,61,53,47,50,47,44,97,81,58,29.83,29.55,16,4,16,0.00
2013-5-6,63,54,46,54,49,44,98,83,57,29.98,29.83,11,2,11,0.08
2013-5-7,66,57,50,53,50,48,95,78,59,30.04,29.96,14,4,14,0.00
2013-5-8,67,56,48,54,50,46,98,83,62,30.11,30.02,13,4,13,0.00
2013-5-9,72,58,47,57,52,46,98,80,56,30.14,30.06,14,4,14,0.00
2013-5-10,78,64,49,60,54,47,97,72,52,30.16,30.07,15,3,15,0.00
2013-5-11,86,72,55,62,55,46,89,57,30,30.11,30.03,10,3,12,0.00
2013-5-12,84,70,56,59,51,46,79,53,30,30.10,29.98,13,3,13,0.00
2013-5-13,83,67,50,60,51,44,83,58,41,30.05,29.92,13,2,14,0.00
2013-5-14,79,65,54,57,52,43,81,63,43,29.94,29.87,13,4,13,0.00
2013-5-15,75,59,47,48,44,41,82,60,35,30.01,29.91,14,4,14,0.00
2013-5-16,68,57,49,53,47,43,83,71,44,29.99,29.91,16,4,18,0.00
2013-5-17,69,55,40,47,43,38,96,67,34,30.05,29.93,13,3,14,0.00
2013-5-18,77,59,42,50,45,38,91,62,32,30.12,30.04,16,3,18,0.00
2013-5-19,81,68,57,44,34,18,62,31,13,30.12,29.99,18,6,21,0.00
2013-5-20,86,73,60,44,37,32,54,28,15,30.01,29.87,24,6,24,0.00
2013-5-21,69,59,44,45,41,36,74,53,37,29.94,29.83,20,4,20,0.00
2013-5-22,66,52,40,38,30,21,75,46,26,30.01,29.89,15,4,15,0.00
2013-5-23,68,53,38,43,39,35,92,62,35,30.01,29.88,15,2,15,0.00
2013-5-24,72,57,40,45,40,30,83,56,29,29.99,29.91,15,3,16,0.00
2013-5-25,71,56,40,50,43,36,93,65,38,30.00,29.92,15,3,15,0.00
2013-5-26,71,57,48,50,46,39,95,69,33,30.08,30.00,19,4,19,0.00
2013-5-27,56,52,47,52,48,41,98,85,67,30.09,29.99,14,3,14,0.08
2013-5-28,71,59,51,56,53,50,99,81,55,30.01,29.90,13,4,13,0.01
2013-5-29,74,61,49,52,49,44,88,66,40,29.94,29.87,16,4,17,0.00
2013-5-30,79,62,45,48,43,38,91,54,24,29.98,29.90,14,3,15,0.00
2013-5-31,90,74,58,50,45,35,59,37,19,30.00,29.90,17,4,17,0.00
2013-6-1,92,77,61,53,46,39,62,37,21,29.91,29.74,16,4,16,0.00
2013-6-2,86,71,58,57,51,42,76,50,34,29.74,29.62,12,3,12,0.00
2013-6-3,77,64,49,56,50,41,93,63,29,29.82,29.66,17,5,20,0.00
2013-6-4,69,58,49,54,50,45,96,74,56,29.92,29.81,15,5,15,0.00
2013-6-5,78,60,47,59,52,46,99,79,51,29.98,29.88,14,4,14,0.00
2013-6-6,86,65,51,62,54,48,95,72,42,29.91,29.82,12,3,12,0.00
2013-6-7,98,80,56,64,57,52,87,49,24,29.85,29.72,19,3,19,0.00
2013-6-8,100,83,63,66,57,51,68,44,22,29.72,29.64,16,5,16,0.00
2013-6-9,65,56,51,54,52,49,97,86,63,29.86,29.71,18,7,19,0.00
2013-6-10,54,52,50,54,51,50,100,98,92,29.97,29.74,16,4,22,0.04
2013-6-11,78,62,46,59,53,45,100,77,45,30.00,29.88,12,2,12,0.01
2013-6-12,81,64,45,52,44,34,95,54,20,29.95,29.88,17,3,17,0.00
2013-6-13,81,64,44,46,41,35,79,47,20,30.08,29.94,14,3,14,0.00
2013-6-14,86,72,60,45,36,21,55,28,11,29.99,29.80,20,5,22,0.00
2013-6-15,78,63,48,56,49,38,90,61,47,29.95,29.78,14,3,14,0.00
2013-6-16,84,68,49,51,45,38,74,47,22,30.05,29.94,16,3,17,0.00
2013-6-17,79,65,54,54,48,42,83,57,38,30.04,29.94,19,4,21,0.00
2013-6-18,71,58,48,50,46,37,95,67,31,29.98,29.91,19,4,20,0.00
2013-6-19,74,59,42,47,43,39,92,61,32,30.05,29.96,13,3,15,0.00
2013-6-20,79,65,50,47,43,36,77,48,24,29.99,29.91,16,3,17,0.00
2013-6-21,85,70,51,50,44,39,73,43,23,29.95,29.88,13,3,13,0.00
2013-6-22,87,73,55,52,44,37,66,38,22,29.90,29.78,16,4,16,0.00
2013-6-23,66,60,54,59,54,47,97,82,59,29.81,29.74,16,4,16,0.00
2013-6-24,57,54,51,56,54,51,100,98,95,29.91,29.75,11,3,12,0.22
2013-6-25,61,58,54,61,58,54,100,100,100,29.99,29.88,10,2,11,0.66
2013-6-26,74,65,59,66,61,59,100,90,66,30.06,29.98,11,3,11,0.03
2013-6-27,88,76,56,66,61,55,98,64,34,30.09,30.00,9,2,10,0.00
2013-6-28,96,81,65,68,60,49,89,52,22,30.02,29.88,15,2,15,0.00
2013-6-29,100,82,62,63,56,49,74,45,20,29.89,29.77,11,2,11,0.00
2013-6-30,96,81,66,67,60,54,71,50,31,29.80,29.72,11,2,11,0.00
2013-7-1,98,82,61,67,61,54,81,51,29,29.81,29.73,12,2,13,0.00
2013-7-2,91,79,66,68,61,57,76,55,38,29.84,29.77,13,3,13,0.00
2013-7-3,96,80,61,69,63,55,88,57,38,29.84,29.73,11,2,12,0.00
2013-7-4,98,88,71,68,57,43,74,36,24,29.74,29.61,16,4,16,0.00
2013-7-5,76,64,52,58,52,43,95,64,37,29.71,29.59,13,4,13,0.00
2013-7-6,78,60,50,59,54,50,99,82,53,29.79,29.71,11,4,11,0.00
2013-7-7,86,66,48,60,52,29,98,67,16,29.83,29.76,10,3,10,0.00
2013-7-8,87,67,48,58,50,27,98,62,13,29.94,29.82,11,2,13,0.00
2013-7-9,93,73,50,56,49,42,90,49,21,30.01,29.92,11,2,12,0.00
2013-7-10,87,74,55,58,48,32,84,41,20,29.94,29.83,14,3,14,0.00
2013-7-11,79,60,47,58,51,45,98,75,45,29.89,29.83,12,4,13,0.00
2013-7-12,80,62,49,60,54,49,100,78,48,29.92,29.86,11,3,12,0.00
2013-7-13,87,70,52,59,53,46,94,60,32,29.94,29.87,11,2,12,0.00
2013-7-14,84,68,52,60,53,44,85,62,43,29.94,29.86,11,2,11,0.00
2013-7-15,77,60,47,57,51,45,98,75,46,29.87,29.79,14,4,14,0.00
2013-7-16,69,56,48,55,51,47,99,85,56,30.01,29.82,15,5,15,0.00
2013-7-17,83,66,47,60,54,44,99,70,27,30.08,30.00,11,3,12,0.01
2013-7-18,88,71,51,60,53,41,89,58,21,30.03,29.90,13,2,13,0.00
2013-7-19,90,75,58,63,56,50,78,54,33,29.90,29.78,12,2,12,0.00
2013-7-20,88,75,61,63,57,53,81,57,34,29.78,29.69,10,3,10,0.00
2013-7-21,85,69,58,61,56,45,86,63,44,29.84,29.69,13,4,13,0.00
2013-7-22,86,70,60,59,52,40,77,55,33,29.94,29.84,13,4,13,0.00
2013-7-23,82,72,63,58,49,34,57,44,28,29.97,29.89,12,3,12,0.00
2013-7-24,91,77,65,60,55,50,74,49,26,29.94,29.87,13,3,13,0.00
2013-7-25,87,74,62,62,56,52,79,54,41,29.95,29.86,12,3,12,0.00
2013-7-26,86,71,60,62,56,52,75,60,42,30.03,29.93,12,3,12,0.00
2013-7-27,83,67,57,61,56,51,86,69,47,29.96,29.82,12,3,12,0.00
2013-7-28,78,62,51,59,54,49,96,76,51,29.83,29.76,12,4,12,0.00
2013-7-29,74,57,48,57,52,47,99,85,55,29.99,29.79,15,4,15,0.00
2013-7-30,81,62,46,60,53,46,99,77,46,30.09,29.99,12,3,12,0.00
2013-7-31,79,62,48,58,52,46,98,72,47,30.05,29.96,15,3,15,0.00
2013-8-1,80,63,50,55,51,47,90,66,40,30.02,29.94,9,4,15,0.00
2013-8-2,84,66,50,56,50,42,82,59,37,29.95,29.87,11,2,12,0.00
2013-8-3,80,62,48,59,53,47,99,75,48,29.94,29.87,10,2,10,0.00
2013-8-4,79,60,48,58,52,48,99,79,49,29.97,29.92,10,3,10,0.00
2013-8-5,80,61,44,58,52,43,99,76,44,30.00,29.92,11,3,11,0.01
2013-8-6,76,59,46,56,51,45,98,78,48,30.00,29.93,14,4,16,0.00
2013-8-7,69,56,49,56,52,49,99,87,63,30.08,30.00,15,5,17,0.00
2013-8-8,77,61,50,58,53,49,99,80,43,30.02,29.91,13,3,14,0.00
2013-8-9,76,60,48,58,52,48,99,80,50,29.96,29.88,14,3,16,0.00
2013-8-10,79,62,49,59,54,49,99,78,46,30.02,29.96,13,3,13,0.01
2013-8-11,82,65,50,60,54,49,98,71,42,29.99,29.91,13,2,13,0.00
2013-8-12,83,67,52,58,53,48,94,64,36,29.96,29.89,11,2,12,0.00
2013-8-13,90,73,54,56,48,42,80,46,19,29.97,29.88,12,2,12,0.00
2013-8-14,88,72,53,58,51,43,77,51,34,29.93,29.85,11,2,12,0.00
2013-8-15,88,72,55,63,59,52,91,66,38,29.92,29.86,11,2,14,0.00
2013-8-16,89,75,63,64,58,42,90,60,23,29.94,29.89,13,3,13,0.00
2013-8-17,83,70,58,62,57,50,81,63,44,29.94,29.82,9,2,10,0.00
2013-8-18,95,80,61,63,58,54,78,49,31,29.86,29.75,11,2,11,0.00
2013-8-19,90,78,64,65,60,56,75,53,38,29.86,29.77,12,2,12,0.00
2013-8-20,85,68,57,64,56,46,89,68,46,29.86,29.76,13,4,13,0.00
2013-8-21,82,66,53,59,52,38,98,65,36,29.90,29.82,13,4,13,0.00
2013-8-22,76,64,52,57,52,43,94,67,44,29.93,29.84,13,4,13,0.00
2013-8-23,81,64,50,60,54,48,96,72,46,29.90,29.78,12,2,12,0.00
2013-8-24,82,66,56,57,53,48,81,63,41,29.86,29.79,15,3,16,0.00
2013-8-25,77,65,56,61,56,53,95,76,51,29.91,29.84,14,3,14,0.00
2013-8-26,83,66,54,60,54,51,100,72,36,29.99,29.88,11,3,11,0.00
2013-8-27,85,68,52,56,52,48,89,60,30,29.89,29.78,13,2,13,0.00
2013-8-28,85,69,58,62,56,50,85,65,41,29.90,29.80,13,3,13,0.00
2013-8-29,84,67,57,61,58,56,98,78,40,30.02,29.89,15,4,15,0.00
2013-9-9,96,87,74,57,48,45,38,27,18,29.95,29.86,13,4,13,0.00
2013-9-10,78,67,56,60,54,47,98,65,39,30.00,29.86,18,4,18,0.00
2013-9-11,68,59,55,60,57,54,100,92,74,30.10,30.00,18,5,18,0.00
2013-9-12,82,65,53,63,58,53,100,80,45,30.08,29.99,13,3,13,0.00
2013-9-13,84,70,56,61,57,53,93,66,44,30.01,29.87,11,2,11,0.00
2013-9-14,80,67,54,60,55,51,89,68,48,29.92,29.85,11,3,11,0.00
2013-9-15,78,63,51,56,53,50,97,74,40,29.97,29.86,18,4,18,0.00
2013-9-16,82,65,50,59,54,48,99,71,40,30.01,29.89,13,2,13,0.01
2013-9-17,76,62,51,53,50,47,94,68,41,30.01,29.89,15,4,15,0.00
2013-9-18,82,68,56,49,43,30,63,43,17,30.04,29.95,19,4,19,0.00
2013-9-19,87,67,49,44,38,22,71,40,16,30.00,29.90,14,2,14,0.00
2013-9-20,74,61,50,58,48,31,94,64,37,29.95,29.87,19,4,19,0.00
2013-9-21,63,56,50,58,54,48,100,91,69,29.99,29.90,16,3,16,0.95
2013-9-22,69,57,45,53,48,44,98,75,43,30.11,29.99,12,2,13,0.00
2013-9-23,79,64,50,58,53,47,92,69,40,30.14,30.05,11,2,12,0.00
2013-9-24,73,60,51,54,49,44,92,70,41,30.09,29.98,20,3,20,0.00
2013-9-25,66,56,48,46,42,38,82,63,37,30.02,29.92,13,4,16,0.00
2013-9-26,69,59,51,39,34,29,61,41,25,30.12,29.95,24,6,24,0.00
2013-9-27,76,62,53,39,34,30,56,35,20,30.20,30.12,17,4,17,0.00
2013-9-28,78,61,45,52,39,32,88,50,22,30.20,30.12,13,2,13,0.00
2013-9-29,67,58,53,59,56,51,99,92,73,30.19,30.14,18,4,18,0.03
2013-9-30,65,59,55,63,58,50,100,97,85,30.16,30.06,14,3,14,0.07
2013-10-1,72,56,42,54,48,42,100,75,42,30.11,30.04,9,1,9,0.01
2013-10-2,73,60,48,50,43,33,87,57,28,30.11,30.04,16,3,16,0.00
2013-10-3,66,58,49,35,30,24,55,36,21,30.17,30.10,29,8,29,0.00
2013-10-4,73,64,56,28,25,21,32,23,15,30.23,30.11,34,11,34,0.00
2013-10-5,81,67,51,36,25,20,51,22,11,30.32,30.23,20,5,23,0.00
2013-10-6,80,64,49,38,32,25,57,34,14,30.25,30.13,11,1,11,0.00
2013-10-7,79,62,47,39,31,21,63,35,13,30.13,30.00,12,2,12,0.00
2013-10-8,73,63,50,44,38,33,64,40,27,30.02,29.81,15,4,15,0.00
2013-10-9,68,56,43,41,37,32,85,50,30,29.89,29.72,22,4,22,0.00
2013-10-10,69,59,48,46,40,33,75,52,38,30.09,29.88,14,3,16,0.00
2013-10-11,68,54,42,50,43,38,95,69,43,30.16,30.07,11,2,11,0.00
2013-10-12,69,56,44,48,43,39,87,65,34,30.09,29.99,13,2,15,0.00
2013-10-13,70,58,46,43,36,31,64,47,24,30.17,30.02,18,5,18,0.00
2013-10-14,74,62,48,38,34,27,55,36,19,30.23,30.13,17,4,20,0.00
2013-10-15,74,66,60,30,27,21,30,23,15,30.17,30.09,26,8,30,0.00
2013-10-16,78,67,53,34,29,25,45,24,17,30.21,30.12,14,3,14,0.00
2013-10-17,79,62,49,37,34,30,56,37,19,30.20,30.10,12,1,12,0.00
2013-10-18,80,63,47,41,36,33,65,40,21,30.17,30.11,12,2,12,0.00
2013-10-19,81,66,52,40,37,33,60,37,18,30.20,30.13,10,2,10,0.00
2013-10-20,80,64,50,47,39,34,62,42,22,30.15,30.04,10,2,10,0.00
2013-10-21,78,64,51,49,42,36,69,47,24,30.10,30.04,14,2,14,0.00
2013-10-22,80,62,50,49,43,38,76,52,22,30.13,30.05,8,2,10,0.00
2013-10-23,78,62,49,49,42,34,73,49,23,30.07,30.01,11,2,11,0.00
2013-10-24,67,55,44,48,44,37,86,67,41,30.17,30.05,11,2,11,0.00
2013-10-25,73,57,44,49,43,37,86,62,38,30.26,30.17,10,2,10,0.00
2013-10-26,81,61,46,46,40,31,75,50,19,30.25,30.14,9,1,9,0.00
2013-10-27,61,52,45,48,42,34,84,69,47,30.14,29.71,16,4,16,0.00
2013-10-28,61,48,35,43,40,33,95,76,45,29.92,29.75,12,2,12,0.00
2013-10-29,56,47,38,46,42,37,99,84,60,30.14,29.92,9,1,9,0.04
2013-10-30,63,48,37,46,41,36,98,79,53,30.24,30.14,10,1,10,0.00
2013-10-31,71,53,40,47,42,37,95,70,38,30.26,30.18,9,1,9,0.00
2013-11-1,72,59,46,44,41,38,80,55,33,30.26,30.14,14,2,14,0.00
2013-11-2,69,57,44,49,42,38,80,58,37,30.14,30.01,16,3,16,0.00
2013-11-3,60,52,46,38,24,15,55,35,19,30.14,30.01,20,6,20,0.00
2013-11-4,64,55,48,32,25,20,43,33,19,30.19,30.00,28,9,28,0.00
2013-11-5,70,58,46,35,32,28,60,38,26,30.32,30.18,21,5,22,0.00
2013-11-6,69,58,46,41,38,33,64,48,35,30.36,30.27,11,2,11,0.00
2013-11-7,71,58,47,41,38,35,72,50,30,30.28,30.18,11,2,11,0.00
2013-11-8,70,57,46,49,43,38,83,61,42,30.19,30.06,10,2,11,0.00
2013-11-9,70,59,46,44,42,38,79,55,33,30.15,30.09,12,3,12,0.00
2013-11-10,66,52,42,49,42,35,89,69,44,30.20,30.13,10,1,10,0.00
2013-11-11,68,53,40,44,40,33,87,62,34,30.28,30.17,7,1,7,0.00
2013-11-12,68,58,49,45,40,36,67,52,32,30.37,30.26,9,1,9,0.00
2013-11-13,76,62,48,49,44,37,78,55,35,30.35,30.20,10,2,10,0.00
2013-11-14,65,57,46,50,44,34,79,62,50,30.20,29.96,9,2,9,0.00
2013-11-15,65,53,43,38,33,25,76,50,22,29.97,29.83,21,4,21,0.00
2013-11-16,62,49,36,44,39,32,90,71,46,30.01,29.84,17,3,17,0.00
2013-11-17,59,47,38,47,41,36,96,83,62,30.17,30.01,10,2,10,0.00
2013-11-18,53,45,37,46,42,36,98,89,72,30.22,30.15,10,2,10,0.01
2013-11-19,52,48,45,52,48,44,100,99,95,30.18,30.02,10,2,10,0.49
2013-11-20,53,51,47,53,51,47,100,100,100,30.02,29.93,18,2,18,0.26
2013-11-21,54,49,45,48,25,11,100,44,21,30.10,29.98,40,15,40,0.00
2013-11-22,64,56,49,12,7,1,22,14,9,30.13,30.04,39,17,39,0.00
2013-11-23,63,54,40,34,16,8,55,25,13,30.19,30.07,30,8,30,0.00
2013-11-24,59,48,38,40,33,23,91,57,34,30.33,30.18,10,2,10,0.00
2013-11-25,60,46,37,40,37,34,92,72,38,30.40,30.32,9,2,9,0.00
2013-11-26,58,50,43,39,34,31,73,54,40,30.35,30.14,9,3,9,0.00
2013-11-27,58,52,48,40,35,30,60,52,45,30.14,29.97,10,5,13,0.00
2013-11-28,66,56,44,42,38,35,77,50,33,30.18,29.99,12,4,12,0.00
2013-11-29,66,53,42,42,39,36,84,60,36,30.31,30.17,13,2,14,0.00
2013-11-30,66,52,42,44,39,37,86,63,34,30.36,30.29,11,2,11,0.00
2013-12-1,68,59,46,45,41,38,81,53,37,30.43,30.32,13,3,14,0.00
2013-12-2,61,52,43,49,42,33,96,71,43,30.32,30.03,14,3,14,0.00
2013-12-3,50,44,40,49,29,12,97,60,25,30.03,29.92,23,4,23,0.00
2013-12-4,45,36,26,18,13,6,51,38,24,30.13,30.00,23,6,23,0.00
2013-12-5,45,36,28,27,14,6,78,42,28,30.19,30.12,15,4,15,0.00
2013-12-6,40,33,22,39,28,20,98,84,53,30.21,29.96,15,2,15,0.53
2013-12-7,39,34,26,38,24,17,98,70,44,30.28,29.96,22,3,22,0.00
2013-12-8,39,33,25,25,17,4,91,55,26,30.34,30.26,19,6,23,0.00
2013-12-9,48,39,28,18,9,0,65,31,19,30.45,30.32,29,8,30,0.00
2013-12-10,54,41,33,26,19,12,69,42,25,30.45,30.27,18,4,18,0.00
2013-12-11,55,47,33,28,25,23,66,43,31,30.31,30.25,21,6,21,0.00
2013-12-12,58,48,37,32,27,22,72,44,31,30.33,30.25,11,3,11,0.00
2013-12-13,60,49,35,34,29,23,73,49,29,30.39,30.29,13,3,13,0.00
2013-12-14,59,51,37,36,32,30,81,49,34,30.47,30.38,14,4,14,0.00
2013-12-15,64,53,41,36,31,26,69,44,31,30.44,30.34,14,4,14,0.00
2013-12-16,69,61,52,36,25,19,43,26,19,30.34,30.23,23,8,23,0.00
2013-12-17,65,58,48,34,29,23,53,34,24,30.27,30.14,11,4,11,0.00
2013-12-18,61,53,44,41,34,28,77,52,33,30.14,29.82,12,3,12,0.00
2013-12-19,51,46,41,36,23,8,78,42,23,30.03,29.79,37,11,37,0.00
2013-12-20,63,50,42,27,9,-9,50,22,8,30.09,29.99,26,7,30,0.00
2013-12-21,62,52,38,45,39,26,87,63,47,30.19,30.05,15,3,15,0.00
2013-12-22,69,60,55,41,37,31,50,42,34,30.37,30.19,25,8,25,0.00
2013-12-23,65,54,44,41,39,35,76,57,41,30.48,30.37,10,3,11,0.00
2013-12-24,69,59,45,41,33,21,70,40,21,30.42,30.31,24,6,24,0.00
2013-12-25,65,58,46,28,23,18,41,26,20,30.40,30.31,27,7,27,0.00
2013-12-26,66,56,45,27,24,19,47,29,20,30.36,30.28,17,5,17,0.00
2013-12-27,61,50,39,32,27,23,60,41,26,30.33,30.21,8,1,8,0.00
2013-12-28,66,56,36,28,22,15,63,29,16,30.24,30.15,23,9,25,0.00
2013-12-29,63,57,50,17,11,4,25,17,11,30.28,30.18,30,8,30,0.00
2013-12-30,62,51,39,32,24,15,64,37,22,30.34,30.27,11,2,11,0.00
2013-12-31,62,50,38,30,25,17,66,41,18,30.35,30.25,11,2,11,0.00
2014-1-1,67,54,42,34,27,20,52,36,22,30.30,30.23,12,2,12,0.00
2014-1-2,64,55,43,36,32,28,60,42,31,30.28,30.17,14,4,14,0.00